Flag for Hungary Weather past 2 weeks in Budapest, Hungary

Now
45 °F

Scattered clouds.


Feels Like: 36 °F
Forecast: 34 / 45 °F
Wind: 24 mph from Northwest

Location: Ferenc Liszt International Airport

Current Time: Dec 21, 2014 at 3:02:14 PM

Latest Report: Dec 21, 2014 at 2:30 PM


Visibility: N/A

Pressure: 30.30 "Hg

Humidity: 57%

Dew point: 30 °F

Location of BudapestLocation

Historic Weather in Budapest — Graph

°F

Budapest temperature yesterday

Maximum temperature yesterday: 50 °F (at 4:00 AM)
Minimum temperature yesterday: 32 °F (at 12:30 AM)
Average temperature yesterday: 45 °F

Past Weeks' High & Low Weather Summary

 TemperatureHumidityPressure
High55 °F (Dec 19, 1:30 PM)100% (Dec 6, 5:30 PM)30.30 "Hg (Dec 6, 5:30 PM)
Low25 °F (Dec 14, 7:00 AM)40% (Dec 20, 1:30 PM)29.83 "Hg (Dec 17, 1:30 AM)
Average39 °F87%30.07 "Hg
* Reported Dec 6 2:00 PM — Dec 21 2:00 PM, Budapest, Weather by CustomWeather, © 2014

Note: Actual official high and low records may vary slightly from our data, if they occured in-between our weather recording intervals... More about our weather records

Advertising

Budapest weather history for previous 24 hours

 ConditionsComfort  
Time TempWeatherWind HumidityBarometerVisibility
2:00 PM
Dec 21
45 °FBroken clouds.21 mph53%30.30 "HgN/A
1:30 PM45 °FBroken clouds.24 mph53%30.30 "HgN/A
1:00 PM45 °FPartly sunny.22 mph53%30.27 "HgN/A
12:30 PM45 °FPassing clouds.20 mph53%30.24 "HgN/A
12:00 PM45 °FPassing clouds.22 mph53%30.24 "HgN/A
11:30 AM45 °FPassing clouds.28 mph53%30.24 "HgN/A
11:00 AM43 °FPassing clouds.30 mph57%30.24 "HgN/A
10:30 AM43 °FPassing clouds.32 mph57%30.24 "HgN/A
10:00 AM43 °FSunny.31 mph53%30.21 "Hg10 mi
9:30 AM43 °FSunny.28 mph53%30.21 "Hg10 mi
9:00 AM41 °FSunny.26 mph61%30.21 "Hg10 mi
8:30 AM41 °FSunny.28 mph61%30.18 "Hg10 mi
8:00 AM41 °FSunny.29 mph66%30.18 "Hg10 mi
7:30 AM41 °FPassing clouds.24 mph66%30.18 "HgN/A
7:00 AM39 °FPassing clouds.20 mph70%30.15 "HgN/A
6:30 AM41 °FPassing clouds.15 mph70%30.15 "HgN/A
6:00 AM43 °FPartly cloudy.25 mph66%30.15 "HgN/A
5:30 AM43 °FPartly cloudy.23 mph66%30.12 "HgN/A
5:00 AM41 °FPassing clouds.23 mph76%30.09 "HgN/A
4:30 AM43 °FPassing clouds.26 mph71%30.09 "HgN/A
4:00 AM43 °FPassing clouds.20 mph66%30.07 "HgN/A
3:30 AM43 °FPassing clouds.21 mph66%30.07 "HgN/A
3:00 AM43 °FPassing clouds.23 mph66%30.04 "HgN/A
2:30 AM43 °FPassing clouds.20 mph66%30.04 "HgN/A
2:00 AM45 °FClear.24 mph61%30.04 "Hg10 mi
1:30 AM45 °FClear.25 mph61%30.04 "Hg10 mi
1:00 AM45 °FClear.24 mph61%30.04 "Hg10 mi
12:30 AM43 °FClear.20 mph66%30.04 "Hg10 mi
12:00 AM43 °FClear.14 mph71%30.04 "Hg10 mi
11:30 PM
Dec 20
43 °FClear.12 mph76%30.04 "Hg10 mi
10:30 PM43 °FClear.9 mph87%30.07 "Hg10 mi
10:00 PM43 °FPassing clouds.12 mph81%30.07 "HgN/A
9:30 PM45 °FSprinkles. Partly cloudy.21 mph76%30.07 "HgN/A
9:00 PM43 °FSprinkles. Partly cloudy.13 mph87%30.07 "HgN/A
8:30 PM43 °FThundershowers. Partly cloudy.9 mph87%30.07 "HgN/A
8:00 PM45 °FThunderstorms. Passing clouds.6 mph71%30.07 "HgN/A
7:30 PM43 °FPartly cloudy.5 mph76%30.07 "HgN/A
7:00 PM43 °FPassing clouds.1 mph71%30.09 "HgN/A
6:30 PM45 °FClear.1 mph66%30.09 "Hg10 mi
6:00 PM45 °FClear.5 mph66%30.09 "Hg10 mi
5:30 PM45 °FClear.8 mph66%30.09 "Hg10 mi
5:00 PM45 °FClear.8 mph66%30.09 "Hg10 mi
4:30 PM46 °FClear.12 mph57%30.09 "Hg10 mi
4:00 PM46 °FClear.12 mph57%30.09 "Hg10 mi
3:30 PM48 °FSunny.14 mph54%30.09 "Hg10 mi
3:00 PM48 °FSunny.17 mph50%30.12 "Hg10 mi
Weather by CustomWeather, © 2014

See weather overviewHow to use our weather pages